Tracking 25620 objects as of 18-May-2022
HD Live streaming from Space Station
objects crossing your sky now

ATLAS 14E R/B

Track ATLAS 14E R/B now!
10-day predictions


NORAD ID: 15272
Int'l Code: 1984-097B
Perigee: 1,472.9 km
Apogee: 19,882.2 km
Inclination: 64.6 °
Period: 369.2 minutes
Semi major axis: 17048 km
RCS: 2.3359 m2 (large)
Launch date: September 8, 1984
Source: United States (US)
Launch site: AIR FORCE WESTERN TEST RANGE (AFWTR)

Note: This is a ROCKET BODY
aabbcc
Your satellite tracking list
Your tracking list is empty




NASA's NSSDC Master Catalog

Two Line Element Set (TLE):
1 15272U 84097B   22136.33261693 -.00000039  00000-0  00000-0 0  9995
2 15272  64.5840 329.6091 5399099 324.4035 261.8544  3.90007702536700
Source of the keplerian elements: AFSPC